Time,TemperatureF,DewpointF,PressureIn,WindDirection,WindDirectionDegrees,WindSpeedMPH,WindSpeedGustMPH,Humidity,HourlyPrecipIn,Conditions,Clouds,dailyrainin,SoftwareType,DateUTC
2013-01-11 00:00:00,37.1,24.5,30.52,NE,36,0.0,0.0,60,0.00,,---,0.00,VWS V14.01,2013-01-11 05:00:00,
2013-01-11 00:03:00,37.0,24.4,30.53,NE,36,0.0,0.0,60,0.00,,---,0.00,VWS V14.01,2013-01-11 05:03:00,
2013-01-11 00:04:00,37.0,24.4,30.53,NE,36,0.0,0.0,60,0.00,,---,0.00,VWS V14.01,2013-01-11 05:04:00,
2013-01-11 00:05:00,36.9,24.3,30.53,NE,36,0.0,0.0,60,0.00,,---,0.00,VWS V14.01,2013-01-11 05:05:00,
2013-01-11 00:06:00,36.9,24.3,30.53,NE,36,0.0,0.0,60,0.00,,---,0.00,VWS V14.01,2013-01-11 05:06:00,
2013-01-11 00:11:00,36.7,24.1,30.52,NE,36,0.0,0.0,60,0.00,,---,0.00,VWS V14.01,2013-01-11 05:11:00,
2013-01-11 00:15:00,36.5,24.0,30.52,NE,36,0.0,0.0,60,0.00,,---,0.00,VWS V14.01,2013-01-11 05:15:00,
2013-01-11 00:16:00,36.5,24.0,30.52,NE,36,0.0,0.0,60,0.00,,---,0.00,VWS V14.01,2013-01-11 05:16:00,
2013-01-11 00:21:00,36.4,24.2,30.52,NE,36,0.0,0.0,61,0.00,,---,0.00,VWS V14.01,2013-01-11 05:21:00,
2013-01-11 00:26:00,36.3,24.1,30.51,NE,36,0.0,0.0,61,0.00,,---,0.00,VWS V14.01,2013-01-11 05:26:00,
2013-01-11 00:30:00,36.2,24.1,30.52,NE,36,0.0,2.0,61,0.00,,---,0.00,VWS V14.01,2013-01-11 05:30:00,
2013-01-11 00:31:00,36.2,24.1,30.51,NE,36,1.0,1.0,61,0.00,,---,0.00,VWS V14.01,2013-01-11 05:31:00,
2013-01-11 00:36:00,36.3,24.5,30.51,NE,36,0.0,2.0,62,0.00,,---,0.00,VWS V14.01,2013-01-11 05:36:00,
2013-01-11 00:41:00,36.2,24.5,30.51,NE,36,0.0,2.0,62,0.00,,---,0.00,VWS V14.01,2013-01-11 05:41:00,
2013-01-11 00:45:00,35.6,24.3,30.52,NE,36,0.0,2.0,63,0.00,,---,0.00,VWS V14.01,2013-01-11 05:45:00,
2013-01-11 00:46:00,35.5,24.2,30.52,NE,36,0.0,0.0,63,0.00,,---,0.00,VWS V14.01,2013-01-11 05:46:00,
2013-01-11 00:51:00,35.2,24.3,30.51,NE,36,0.0,2.0,64,0.00,,---,0.00,VWS V14.01,2013-01-11 05:51:00,
2013-01-11 00:56:00,35.1,24.2,30.51,NE,36,0.0,2.0,64,0.00,,---,0.00,VWS V14.01,2013-01-11 05:56:00,
2013-01-11 01:00:00,35.3,24.4,30.51,NE,36,2.0,3.0,64,0.00,,---,0.00,VWS V14.01,2013-01-11 06:00:00,
2013-01-11 01:01:00,35.4,24.5,30.51,NE,36,2.0,3.0,64,0.00,,---,0.00,VWS V14.01,2013-01-11 06:01:00,
2013-01-11 01:06:00,35.7,24.4,30.50,NE,36,0.0,3.0,63,0.00,,---,0.00,VWS V14.01,2013-01-11 06:06:00,
2013-01-11 01:12:00,36.1,24.4,30.51,NE,36,0.0,3.0,62,0.00,,---,0.00,VWS V14.01,2013-01-11 06:12:00,
2013-01-11 01:15:00,36.4,24.2,30.51,NE,36,0.0,3.0,61,0.00,,---,0.00,VWS V14.01,2013-01-11 06:15:00,
2013-01-11 01:17:00,36.5,24.3,30.51,NE,36,0.0,0.0,61,0.00,,---,0.00,VWS V14.01,2013-01-11 06:17:00,
2013-01-11 01:22:00,36.6,24.0,30.50,NE,36,3.0,3.0,60,0.00,,---,0.00,VWS V14.01,2013-01-11 06:22:00,
2013-01-11 01:27:00,36.8,24.2,30.50,ENE,74,3.0,6.0,60,0.00,,---,0.00,VWS V14.01,2013-01-11 06:27:00,
2013-01-11 01:30:00,36.7,24.5,30.51,NE,36,0.0,6.0,61,0.00,,---,0.00,VWS V14.01,2013-01-11 06:30:00,
2013-01-11 01:32:00,36.6,24.0,30.51,NE,36,0.0,0.0,60,0.00,,---,0.00,VWS V14.01,2013-01-11 06:32:00,
2013-01-11 01:37:00,36.6,24.0,30.50,NE,37,0.0,2.0,60,0.00,,---,0.00,VWS V14.01,2013-01-11 06:37:00,
2013-01-11 01:42:00,36.7,23.7,30.50,ENE,62,2.0,4.0,59,0.00,,---,0.00,VWS V14.01,2013-01-11 06:42:00,
2013-01-11 01:45:00,36.9,23.9,30.50,ENE,62,2.0,4.0,59,0.00,,---,0.00,VWS V14.01,2013-01-11 06:45:00,
2013-01-11 01:47:00,36.9,23.9,30.49,ENE,66,3.0,4.0,59,0.00,,---,0.00,VWS V14.01,2013-01-11 06:47:00,
2013-01-11 01:52:00,37.2,23.8,30.49,NE,38,0.0,5.0,58,0.00,,---,0.00,VWS V14.01,2013-01-11 06:52:00,
2013-01-11 01:57:00,37.3,23.9,30.49,NE,39,0.0,5.0,58,0.00,,---,0.00,VWS V14.01,2013-01-11 06:57:00,
2013-01-11 02:00:00,37.4,23.6,30.50,NE,39,0.0,5.0,57,0.00,,---,0.00,VWS V14.01,2013-01-11 07:00:00,
2013-01-11 02:02:00,37.5,23.7,30.50,NE,39,0.0,0.0,57,0.00,,---,0.00,VWS V14.01,2013-01-11 07:02:00,
2013-01-11 02:07:00,37.6,23.8,30.50,NE,39,0.0,2.0,57,0.00,,---,0.00,VWS V14.01,2013-01-11 07:07:00,
2013-01-11 02:12:00,37.4,23.6,30.50,NE,39,0.0,2.0,57,0.00,,---,0.00,VWS V14.01,2013-01-11 07:12:00,
2013-01-11 02:15:00,37.2,23.4,30.50,NE,39,0.0,2.0,57,0.00,,---,0.00,VWS V14.01,2013-01-11 07:15:00,
2013-01-11 02:17:00,37.1,23.3,30.49,NE,39,0.0,0.0,57,0.00,,---,0.00,VWS V14.01,2013-01-11 07:17:00,
2013-01-11 02:22:00,36.8,23.4,30.49,NE,39,0.0,2.0,58,0.00,,---,0.00,VWS V14.01,2013-01-11 07:22:00,
2013-01-11 02:27:00,36.5,23.5,30.50,NE,39,3.0,3.0,59,0.00,,---,0.00,VWS V14.01,2013-01-11 07:27:00,
2013-01-11 02:30:00,36.2,23.7,30.49,NE,39,0.0,3.0,60,0.00,,---,0.00,VWS V14.01,2013-01-11 07:30:00,
2013-01-11 02:32:00,36.1,23.6,30.49,NE,39,0.0,0.0,60,0.00,,---,0.00,VWS V14.01,2013-01-11 07:32:00,
2013-01-11 02:37:00,36.0,23.5,30.49,NE,39,1.0,3.0,60,0.00,,---,0.00,VWS V14.01,2013-01-11 07:37:00,
2013-01-11 02:42:00,36.3,23.4,30.49,NE,39,0.0,4.0,59,0.00,,---,0.00,VWS V14.01,2013-01-11 07:42:00,
2013-01-11 02:45:00,36.5,23.5,30.48,NE,40,1.0,4.0,59,0.00,,---,0.00,VWS V14.01,2013-01-11 07:45:00,
2013-01-11 02:47:00,36.6,23.2,30.48,NE,39,0.0,2.0,58,0.00,,---,0.00,VWS V14.01,2013-01-11 07:47:00,
2013-01-11 02:52:00,36.7,23.3,30.48,NE,39,0.0,3.0,58,0.00,,---,0.00,VWS V14.01,2013-01-11 07:52:00,
2013-01-11 02:57:00,36.6,23.2,30.48,NE,39,0.0,3.0,58,0.00,,---,0.00,VWS V14.01,2013-01-11 07:57:00,
2013-01-11 03:00:00,36.4,23.0,30.49,NE,40,0.0,3.0,58,0.00,,---,0.00,VWS V14.01,2013-01-11 08:00:00,
2013-01-11 03:02:00,36.3,23.0,30.49,NE,39,0.0,0.0,58,0.00,,---,0.00,VWS V14.01,2013-01-11 08:02:00,
2013-01-11 03:07:00,36.3,23.4,30.48,NE,40,2.0,3.0,59,0.00,,---,0.00,VWS V14.01,2013-01-11 08:07:00,
2013-01-11 03:13:00,36.0,23.1,30.47,NE,39,0.0,4.0,59,0.00,,---,0.00,VWS V14.01,2013-01-11 08:13:00,
2013-01-11 03:15:00,36.0,23.1,30.48,NE,40,2.0,4.0,59,0.00,,---,0.00,VWS V14.01,2013-01-11 08:15:00,
2013-01-11 03:18:00,36.0,23.1,30.48,NE,40,2.0,3.0,59,0.00,,---,0.00,VWS V14.01,2013-01-11 08:18:00,
2013-01-11 03:23:00,36.3,23.0,30.48,NE,40,0.0,4.0,58,0.00,,---,0.00,VWS V14.01,2013-01-11 08:23:00,
2013-01-11 03:28:00,36.1,23.2,30.47,NE,40,1.0,4.0,59,0.00,,---,0.00,VWS V14.01,2013-01-11 08:28:00,
2013-01-11 03:30:00,36.0,23.1,30.48,NE,40,1.0,4.0,59,0.00,,---,0.00,VWS V14.01,2013-01-11 08:30:00,
2013-01-11 03:33:00,36.1,23.2,30.48,NE,40,3.0,3.0,59,0.00,,---,0.00,VWS V14.01,2013-01-11 08:33:00,
2013-01-11 03:38:00,36.3,23.4,30.48,NE,40,2.0,4.0,59,0.00,,---,0.00,VWS V14.01,2013-01-11 08:38:00,
2013-01-11 03:43:00,36.4,23.0,30.47,ENE,58,0.0,5.0,58,0.00,,---,0.00,VWS V14.01,2013-01-11 08:43:00,
2013-01-11 03:45:00,36.4,23.0,30.46,ENE,58,1.0,5.0,58,0.00,,---,0.00,VWS V14.01,2013-01-11 08:45:00,
2013-01-11 03:48:00,36.4,23.0,30.46,ENE,75,5.0,8.0,58,0.00,,---,0.00,VWS V14.01,2013-01-11 08:48:00,
2013-01-11 03:53:00,36.3,23.0,30.45,ENE,71,4.0,8.0,58,0.00,,---,0.00,VWS V14.01,2013-01-11 08:53:00,
2013-01-11 03:58:00,36.2,22.9,30.45,ENE,74,2.0,8.0,58,0.00,,---,0.00,VWS V14.01,2013-01-11 08:58:00,
2013-01-11 04:00:00,36.2,22.9,30.45,ENE,76,0.0,8.0,58,0.00,,---,0.00,VWS V14.01,2013-01-11 09:00:00,
2013-01-11 04:03:00,36.2,22.9,30.45,ENE,76,2.0,3.0,58,0.00,,---,0.00,VWS V14.01,2013-01-11 09:03:00,
2013-01-11 04:08:00,36.2,22.9,30.45,ENE,75,3.0,3.0,58,0.00,,---,0.00,VWS V14.01,2013-01-11 09:08:00,
2013-01-11 04:13:00,36.1,22.8,30.45,ENE,70,4.0,4.0,58,0.00,,---,0.00,VWS V14.01,2013-01-11 09:13:00,
2013-01-11 04:15:00,36.1,22.8,30.45,NNE,12,0.0,4.0,58,0.00,,---,0.00,VWS V14.01,2013-01-11 09:15:00,
2013-01-11 04:18:00,36.1,22.8,30.45,NNE,14,0.0,3.0,58,0.00,,---,0.00,VWS V14.01,2013-01-11 09:18:00,
2013-01-11 04:23:00,36.1,22.8,30.44,ENE,76,4.0,4.0,58,0.00,,---,0.00,VWS V14.01,2013-01-11 09:23:00,
2013-01-11 04:28:00,36.1,22.8,30.44,ENE,76,0.0,4.0,58,0.00,,---,0.00,VWS V14.01,2013-01-11 09:28:00,
2013-01-11 04:30:00,36.1,22.8,30.44,ENE,76,0.0,4.0,58,0.00,,---,0.00,VWS V14.01,2013-01-11 09:30:00,
2013-01-11 04:33:00,36.1,22.8,30.44,NNE,32,0.0,2.0,58,0.00,,---,0.00,VWS V14.01,2013-01-11 09:33:00,
2013-01-11 04:38:00,36.1,22.8,30.45,NNE,32,0.0,2.0,58,0.00,,---,0.00,VWS V14.01,2013-01-11 09:38:00,
2013-01-11 04:43:00,36.1,22.8,30.45,NNE,32,0.0,2.0,58,0.00,,---,0.00,VWS V14.01,2013-01-11 09:43:00,
2013-01-11 04:45:00,36.1,22.8,30.45,NNE,32,0.0,2.0,58,0.00,,---,0.00,VWS V14.01,2013-01-11 09:45:00,
2013-01-11 04:48:00,36.0,23.1,30.45,NNE,32,0.0,0.0,59,0.00,,---,0.00,VWS V14.01,2013-01-11 09:48:00,
2013-01-11 04:53:00,35.8,22.9,30.44,NNE,32,0.0,0.0,59,0.00,,---,0.00,VWS V14.01,2013-01-11 09:53:00,
2013-01-11 04:58:00,35.7,22.8,30.45,NNE,32,0.0,0.0,59,0.00,,---,0.00,VWS V14.01,2013-01-11 09:58:00,
2013-01-11 05:00:00,35.7,23.2,30.45,NNE,32,0.0,0.0,60,0.00,,---,0.00,VWS V14.01,2013-01-11 10:00:00,
2013-01-11 05:03:00,35.5,23.4,30.45,NNE,32,0.0,0.0,61,0.00,,---,0.00,VWS V14.01,2013-01-11 10:03:00,
2013-01-11 05:08:00,35.2,23.1,30.45,NNE,32,0.0,0.0,61,0.00,,---,0.00,VWS V14.01,2013-01-11 10:08:00,
2013-01-11 05:14:00,35.1,23.0,30.45,NNE,32,0.0,0.0,61,0.00,,---,0.00,VWS V14.01,2013-01-11 10:14:00,
2013-01-11 05:15:00,34.9,23.2,30.46,NNE,32,0.0,0.0,62,0.00,,---,0.00,VWS V14.01,2013-01-11 10:15:00,
2013-01-11 05:19:00,34.7,23.0,30.46,NNE,32,0.0,0.0,62,0.00,,---,0.00,VWS V14.01,2013-01-11 10:19:00,
2013-01-11 05:24:00,34.5,23.2,30.45,NNE,32,0.0,0.0,63,0.00,,---,0.00,VWS V14.01,2013-01-11 10:24:00,
2013-01-11 05:29:00,34.6,23.3,30.46,NNE,32,0.0,0.0,63,0.00,,---,0.00,VWS V14.01,2013-01-11 10:29:00,
2013-01-11 05:30:00,34.6,23.3,30.45,NNE,32,0.0,0.0,63,0.00,,---,0.00,VWS V14.01,2013-01-11 10:30:00,
2013-01-11 05:34:00,34.5,23.2,30.46,NNE,32,0.0,0.0,63,0.00,,---,0.00,VWS V14.01,2013-01-11 10:34:00,
2013-01-11 05:39:00,34.4,23.5,30.46,NNE,32,0.0,0.0,64,0.00,,---,0.00,VWS V14.01,2013-01-11 10:39:00,
2013-01-11 05:44:00,34.2,23.3,30.46,NNE,32,0.0,0.0,64,0.00,,---,0.00,VWS V14.01,2013-01-11 10:44:00,
2013-01-11 05:45:00,34.2,23.3,30.46,NNE,32,0.0,0.0,64,0.00,,---,0.00,VWS V14.01,2013-01-11 10:45:00,
2013-01-11 05:49:00,34.4,23.5,30.46,NNE,32,0.0,0.0,64,0.00,,---,0.00,VWS V14.01,2013-01-11 10:49:00,
2013-01-11 05:54:00,34.4,23.1,30.46,NNE,32,0.0,0.0,63,0.00,,---,0.00,VWS V14.01,2013-01-11 10:54:00,
2013-01-11 05:59:00,34.5,23.2,30.46,NNE,32,0.0,0.0,63,0.00,,---,0.00,VWS V14.01,2013-01-11 10:59:00,
2013-01-11 06:00:00,34.5,23.2,30.46,NNE,32,0.0,0.0,63,0.00,,---,0.00,VWS V14.01,2013-01-11 11:00:00,
2013-01-11 06:04:00,34.5,23.6,30.46,NNE,32,0.0,0.0,64,0.00,,---,0.00,VWS V14.01,2013-01-11 11:04:00,
2013-01-11 06:09:00,34.5,23.2,30.45,NNE,32,0.0,0.0,63,0.00,,---,0.00,VWS V14.01,2013-01-11 11:09:00,
2013-01-11 06:14:00,34.5,23.6,30.46,NNE,32,0.0,0.0,64,0.00,,---,0.00,VWS V14.01,2013-01-11 11:14:00,
2013-01-11 06:15:00,34.4,23.5,30.46,NNE,32,0.0,0.0,64,0.00,,---,0.00,VWS V14.01,2013-01-11 11:15:00,
2013-01-11 06:19:00,34.4,23.9,30.46,NNE,32,0.0,0.0,65,0.00,,---,0.00,VWS V14.01,2013-01-11 11:19:00,
2013-01-11 06:24:00,34.4,23.9,30.46,NNE,32,0.0,0.0,65,0.00,,---,0.00,VWS V14.01,2013-01-11 11:24:00,
2013-01-11 06:29:00,34.4,23.9,30.46,NNE,32,0.0,0.0,65,0.00,,---,0.00,VWS V14.01,2013-01-11 11:29:00,
2013-01-11 06:30:00,34.3,23.8,30.46,NNE,32,0.0,0.0,65,0.00,,---,0.00,VWS V14.01,2013-01-11 11:30:00,
2013-01-11 06:35:00,34.4,23.9,30.46,NNE,32,0.0,0.0,65,0.00,,---,0.00,VWS V14.01,2013-01-11 11:35:00,
2013-01-11 06:40:00,34.5,24.0,30.45,NNE,32,0.0,2.0,65,0.00,,---,0.00,VWS V14.01,2013-01-11 11:40:00,
2013-01-11 06:45:00,34.6,24.1,30.46,NNE,32,0.0,2.0,65,0.00,,---,0.00,VWS V14.01,2013-01-11 11:45:00,
2013-01-11 06:50:00,34.5,24.0,30.46,NNE,32,0.0,0.0,65,0.00,,---,0.00,VWS V14.01,2013-01-11 11:50:00,
2013-01-11 06:55:00,34.3,23.8,30.46,NNE,32,0.0,0.0,65,0.00,,---,0.00,VWS V14.01,2013-01-11 11:55:00,
2013-01-11 07:00:00,34.0,23.9,30.46,NNE,32,0.0,0.0,66,0.00,,---,0.00,VWS V14.01,2013-01-11 12:00:00,
2013-01-11 07:05:00,33.9,23.8,30.46,NNE,32,0.0,0.0,66,0.00,,---,0.00,VWS V14.01,2013-01-11 12:05:00,
2013-01-11 07:10:00,33.7,23.6,30.46,NNE,32,0.0,0.0,66,0.00,,---,0.00,VWS V14.01,2013-01-11 12:10:00,
2013-01-11 07:15:00,33.6,23.8,30.46,NNE,32,0.0,0.0,67,0.00,,---,0.00,VWS V14.01,2013-01-11 12:15:00,
2013-01-11 07:20:00,33.6,23.8,30.47,NNE,32,0.0,0.0,67,0.00,,---,0.00,VWS V14.01,2013-01-11 12:20:00,
2013-01-11 07:25:00,33.6,23.8,30.46,NNE,32,0.0,0.0,67,0.00,,---,0.00,VWS V14.01,2013-01-11 12:25:00,
2013-01-11 07:30:00,33.8,23.7,30.46,NNE,32,2.0,2.0,66,0.00,,---,0.00,VWS V14.01,2013-01-11 12:30:00,
2013-01-11 07:36:00,33.9,24.1,30.46,NNE,32,0.0,1.0,67,0.00,,---,0.00,VWS V14.01,2013-01-11 12:36:00,
2013-01-11 07:41:00,34.0,24.2,30.45,NNE,32,0.0,1.0,67,0.00,,---,0.00,VWS V14.01,2013-01-11 12:41:00,
2013-01-11 07:45:00,34.2,24.0,30.46,NNE,32,0.0,1.0,66,0.00,,---,0.00,VWS V14.01,2013-01-11 12:45:00,
2013-01-11 07:46:00,34.2,24.0,30.46,NNE,32,0.0,1.0,66,0.00,,---,0.00,VWS V14.01,2013-01-11 12:46:00,
2013-01-11 07:51:00,34.2,24.4,30.46,NNE,32,0.0,0.0,67,0.00,,---,0.00,VWS V14.01,2013-01-11 12:51:00,
2013-01-11 07:56:00,33.8,24.0,30.46,NNE,32,0.0,0.0,67,0.00,,---,0.00,VWS V14.01,2013-01-11 12:56:00,
2013-01-11 08:00:00,33.8,24.0,30.46,NNE,32,0.0,0.0,67,0.00,,---,0.00,VWS V14.01,2013-01-11 13:00:00,
2013-01-11 08:01:00,33.8,24.0,30.46,NNE,32,0.0,0.0,67,0.00,,---,0.00,VWS V14.01,2013-01-11 13:01:00,
2013-01-11 08:06:00,33.9,24.1,30.45,NNE,32,0.0,0.0,67,0.00,,---,0.00,VWS V14.01,2013-01-11 13:06:00,
2013-01-11 08:11:00,33.8,24.0,30.44,NNE,32,2.0,2.0,67,0.00,,---,0.00,VWS V14.01,2013-01-11 13:11:00,
2013-01-11 08:15:00,34.3,24.9,30.44,NNE,32,0.0,2.0,68,0.00,,---,0.00,VWS V14.01,2013-01-11 13:15:00,
2013-01-11 08:16:00,34.4,25.0,30.44,NNE,32,0.0,0.0,68,0.00,,---,0.00,VWS V14.01,2013-01-11 13:16:00,
2013-01-11 08:21:00,34.6,25.1,30.44,NNE,32,0.0,0.0,68,0.00,,---,0.00,VWS V14.01,2013-01-11 13:21:00,
2013-01-11 08:26:00,34.7,25.2,30.44,NNE,32,0.0,0.0,68,0.00,,---,0.00,VWS V14.01,2013-01-11 13:26:00,
2013-01-11 08:30:00,35.0,25.5,30.44,NNE,32,0.0,1.0,68,0.00,,---,0.00,VWS V14.01,2013-01-11 13:30:00,
2013-01-11 08:31:00,35.0,25.5,30.44,NNE,32,0.0,0.0,68,0.00,,---,0.00,VWS V14.01,2013-01-11 13:31:00,
2013-01-11 08:36:00,35.1,26.0,30.45,NNE,32,0.0,0.0,69,0.00,,---,0.00,VWS V14.01,2013-01-11 13:36:00,
2013-01-11 08:41:00,35.3,25.5,30.45,NNE,32,0.0,0.0,67,0.00,,---,0.00,VWS V14.01,2013-01-11 13:41:00,
2013-01-11 08:45:00,35.6,25.7,30.45,NNE,32,0.0,0.0,67,0.00,,---,0.00,VWS V14.01,2013-01-11 13:45:00,
2013-01-11 08:46:00,35.6,25.7,30.44,NNE,32,0.0,0.0,67,0.00,,---,0.00,VWS V14.01,2013-01-11 13:46:00,
2013-01-11 08:51:00,35.8,25.6,30.45,NNE,32,0.0,0.0,66,0.00,,---,0.00,VWS V14.01,2013-01-11 13:51:00,
2013-01-11 08:56:00,36.1,25.9,30.45,NNE,30,0.0,2.0,66,0.00,,---,0.00,VWS V14.01,2013-01-11 13:56:00,
2013-01-11 09:00:00,36.2,25.6,30.45,NNE,30,0.0,2.0,65,0.00,,---,0.00,VWS V14.01,2013-01-11 14:00:00,
2013-01-11 09:01:00,36.2,25.6,30.46,NNE,30,0.0,0.0,65,0.00,,---,0.00,VWS V14.01,2013-01-11 14:01:00,
2013-01-11 09:06:00,36.5,25.9,30.45,NNE,30,0.0,0.0,65,0.00,,---,0.00,VWS V14.01,2013-01-11 14:06:00,
2013-01-11 09:12:00,36.8,25.8,30.45,NNE,30,0.0,2.0,64,0.00,,---,0.00,VWS V14.01,2013-01-11 14:12:00,
2013-01-11 09:15:00,37.0,25.6,30.45,NNE,30,0.0,2.0,63,0.00,,---,0.00,VWS V14.01,2013-01-11 14:15:00,
2013-01-11 09:17:00,37.0,25.6,30.45,NNE,30,0.0,0.0,63,0.00,,---,0.00,VWS V14.01,2013-01-11 14:17:00,
2013-01-11 09:22:00,37.2,25.8,30.44,NNE,30,0.0,3.0,63,0.00,,---,0.00,VWS V14.01,2013-01-11 14:22:00,
2013-01-11 09:27:00,37.3,25.9,30.43,NE,53,3.0,3.0,63,0.00,,---,0.00,VWS V14.01,2013-01-11 14:27:00,
2013-01-11 09:30:00,37.4,26.0,30.44,NE,56,0.0,4.0,63,0.00,,---,0.00,VWS V14.01,2013-01-11 14:30:00,
2013-01-11 09:32:00,37.5,26.1,30.44,NE,56,0.0,0.0,63,0.00,,---,0.00,VWS V14.01,2013-01-11 14:32:00,
2013-01-11 09:37:00,37.5,26.1,30.43,NE,56,0.0,0.0,63,0.00,,---,0.00,VWS V14.01,2013-01-11 14:37:00,
2013-01-11 09:42:00,37.7,26.3,30.43,NE,56,0.0,0.0,63,0.00,,---,0.00,VWS V14.01,2013-01-11 14:42:00,
2013-01-11 09:45:00,37.9,26.4,30.43,NE,56,0.0,3.0,63,0.00,,---,0.00,VWS V14.01,2013-01-11 14:45:00,
2013-01-11 09:47:00,38.0,26.9,30.43,NE,56,0.0,0.0,64,0.00,,---,0.00,VWS V14.01,2013-01-11 14:47:00,
2013-01-11 09:52:00,38.3,26.8,30.43,NE,56,0.0,2.0,63,0.00,,---,0.00,VWS V14.01,2013-01-11 14:52:00,
2013-01-11 09:57:00,38.5,27.0,30.44,NE,56,0.0,2.0,63,0.00,,---,0.00,VWS V14.01,2013-01-11 14:57:00,
2013-01-11 10:00:00,38.7,27.6,30.44,NE,56,0.0,2.0,64,0.00,,---,0.00,VWS V14.01,2013-01-11 15:00:00,
2013-01-11 10:02:00,38.7,27.6,30.44,NE,56,0.0,0.0,64,0.00,,---,0.00,VWS V14.01,2013-01-11 15:02:00,
2013-01-11 10:07:00,38.8,27.7,30.44,NE,56,0.0,1.0,64,0.00,,---,0.00,VWS V14.01,2013-01-11 15:07:00,
2013-01-11 10:12:00,38.9,27.4,30.44,NE,56,0.0,1.0,63,0.00,,---,0.00,VWS V14.01,2013-01-11 15:12:00,
2013-01-11 10:15:00,39.1,28.0,30.43,NE,56,0.0,1.0,64,0.00,,---,0.00,VWS V14.01,2013-01-11 15:15:00,
2013-01-11 10:17:00,39.2,28.1,30.43,NE,56,0.0,0.0,64,0.00,,---,0.00,VWS V14.01,2013-01-11 15:17:00,
2013-01-11 10:22:00,39.5,28.4,30.42,NE,56,2.0,3.0,64,0.00,,---,0.00,VWS V14.01,2013-01-11 15:22:00,
2013-01-11 10:27:00,39.8,28.6,30.42,ENE,57,0.0,4.0,64,0.00,,---,0.00,VWS V14.01,2013-01-11 15:27:00,
2013-01-11 10:30:00,40.1,29.3,30.42,ENE,57,1.0,4.0,65,0.00,,---,0.00,VWS V14.01,2013-01-11 15:30:00,
2013-01-11 10:32:00,40.2,29.4,30.42,ENE,57,2.0,2.0,65,0.00,,---,0.00,VWS V14.01,2013-01-11 15:32:00,
2013-01-11 10:37:00,40.6,29.8,30.41,ENE,63,4.0,4.0,65,0.00,,---,0.00,VWS V14.01,2013-01-11 15:37:00,
2013-01-11 10:42:00,41.0,30.1,30.40,SE,127,1.0,5.0,65,0.00,,---,0.00,VWS V14.01,2013-01-11 15:42:00,
2013-01-11 10:45:00,41.3,30.4,30.40,SE,126,5.0,8.0,65,0.00,,---,0.00,VWS V14.01,2013-01-11 15:45:00,
2013-01-11 10:47:00,41.5,30.6,30.39,East,91,5.0,6.0,65,0.00,,---,0.00,VWS V14.01,2013-01-11 15:47:00,
2013-01-11 10:52:00,41.9,31.4,30.39,SE,135,5.0,9.0,66,0.00,,---,0.00,VWS V14.01,2013-01-11 15:52:00,
2013-01-11 10:57:00,42.2,31.7,30.40,SE,129,3.0,9.0,66,0.00,,---,0.00,VWS V14.01,2013-01-11 15:57:00,
2013-01-11 11:00:00,42.4,31.9,30.40,SE,128,4.0,9.0,66,0.00,,---,0.00,VWS V14.01,2013-01-11 16:00:00,
2013-01-11 11:03:00,42.6,32.4,30.39,ESE,121,5.0,9.0,67,0.00,,---,0.00,VWS V14.01,2013-01-11 16:03:00,
2013-01-11 11:08:00,42.8,32.6,30.39,East,97,5.0,11.0,67,0.00,,---,0.00,VWS V14.01,2013-01-11 16:08:00,
2013-01-11 11:13:00,42.8,32.6,30.38,East,79,6.0,11.0,67,0.00,,---,0.00,VWS V14.01,2013-01-11 16:13:00,
2013-01-11 11:15:00,42.7,32.5,30.37,SE,140,4.0,12.0,67,0.00,,---,0.00,VWS V14.01,2013-01-11 16:15:00,
2013-01-11 11:18:00,42.7,32.9,30.37,SE,138,3.0,8.0,68,0.00,,---,0.00,VWS V14.01,2013-01-11 16:18:00,
2013-01-11 11:23:00,42.8,33.0,30.36,SE,131,6.0,10.0,68,0.00,,---,0.00,VWS V14.01,2013-01-11 16:23:00,
2013-01-11 11:28:00,42.9,33.1,30.37,ESE,121,8.0,13.0,68,0.00,,---,0.00,VWS V14.01,2013-01-11 16:28:00,
2013-01-11 11:30:00,43.1,33.6,30.37,ESE,112,10.0,13.0,69,0.00,,---,0.00,VWS V14.01,2013-01-11 16:30:00,
2013-01-11 11:33:00,43.1,33.3,30.37,ESE,111,3.0,10.0,68,0.00,,---,0.00,VWS V14.01,2013-01-11 16:33:00,
2013-01-11 11:38:00,43.3,33.5,30.35,SE,130,7.0,10.0,68,0.00,,---,0.00,VWS V14.01,2013-01-11 16:38:00,
2013-01-11 11:43:00,43.2,33.4,30.35,ESE,113,3.0,10.0,68,0.00,,---,0.00,VWS V14.01,2013-01-11 16:43:00,
2013-01-11 11:45:00,43.3,33.5,30.35,ESE,115,2.0,10.0,68,0.00,,---,0.00,VWS V14.01,2013-01-11 16:45:00,
2013-01-11 11:48:00,43.4,33.6,30.35,SE,137,4.0,7.0,68,0.00,,---,0.00,VWS V14.01,2013-01-11 16:48:00,
2013-01-11 11:53:00,43.3,33.5,30.35,SE,134,3.0,7.0,68,0.00,,---,0.00,VWS V14.01,2013-01-11 16:53:00,
2013-01-11 11:58:00,43.4,33.6,30.34,ENE,70,4.0,9.0,68,0.00,,---,0.00,VWS V14.01,2013-01-11 16:58:00,
2013-01-11 12:00:00,43.4,33.6,30.34,ESE,108,11.0,11.0,68,0.00,,---,0.00,VWS V14.01,2013-01-11 17:00:00,
2013-01-11 12:03:00,43.3,33.5,30.34,SE,134,4.0,11.0,68,0.00,,---,0.00,VWS V14.01,2013-01-11 17:03:00,
2013-01-11 12:08:00,43.5,33.7,30.34,SE,136,1.0,11.0,68,0.00,,---,0.00,VWS V14.01,2013-01-11 17:08:00,
2013-01-11 12:13:00,43.7,33.8,30.33,ESE,121,4.0,11.0,68,0.00,,---,0.00,VWS V14.01,2013-01-11 17:13:00,
2013-01-11 12:15:00,43.6,33.8,30.33,SSE,157,4.0,11.0,68,0.00,,---,0.00,VWS V14.01,2013-01-11 17:15:00,
2013-01-11 12:18:00,43.5,33.7,30.33,SSE,155,4.0,9.0,68,0.00,,---,0.00,VWS V14.01,2013-01-11 17:18:00,
2013-01-11 12:23:00,43.3,34.2,30.33,East,101,10.0,11.0,70,0.00,,---,0.00,VWS V14.01,2013-01-11 17:23:00,
2013-01-11 12:28:00,43.3,33.8,30.33,ESE,123,8.0,11.0,69,0.00,,---,0.00,VWS V14.01,2013-01-11 17:28:00,
2013-01-11 12:30:00,43.3,34.2,30.33,ESE,123,4.0,11.0,70,0.00,,---,0.00,VWS V14.01,2013-01-11 17:30:00,
2013-01-11 12:33:00,43.3,34.2,30.32,ESE,109,11.0,12.0,70,0.00,,---,0.00,VWS V14.01,2013-01-11 17:33:00,
2013-01-11 12:38:00,43.6,34.5,30.32,ESE,119,8.0,12.0,70,0.00,,---,0.00,VWS V14.01,2013-01-11 17:38:00,
2013-01-11 12:43:00,43.6,34.5,30.32,SE,139,3.0,12.0,70,0.00,,---,0.00,VWS V14.01,2013-01-11 17:43:00,
2013-01-11 12:45:00,43.6,34.5,30.32,ESE,111,2.0,12.0,70,0.00,,---,0.00,VWS V14.01,2013-01-11 17:45:00,
2013-01-11 12:48:00,43.7,34.9,30.32,SE,124,3.0,8.0,71,0.00,,---,0.00,VWS V14.01,2013-01-11 17:48:00,
2013-01-11 12:53:00,43.7,34.9,30.31,ESE,104,7.0,9.0,71,0.00,,---,0.00,VWS V14.01,2013-01-11 17:53:00,
2013-01-11 12:59:00,43.7,34.9,30.32,SE,125,3.0,10.0,71,0.00,,---,0.00,VWS V14.01,2013-01-11 17:59:00,
2013-01-11 13:00:00,43.7,34.9,30.33,SE,130,3.0,10.0,71,0.00,,---,0.00,VWS V14.01,2013-01-11 18:00:00,
2013-01-11 13:04:00,43.6,34.8,30.33,ESE,120,5.0,8.0,71,0.00,,---,0.00,VWS V14.01,2013-01-11 18:04:00,
2013-01-11 13:09:00,43.7,35.3,30.32,East,101,7.0,10.0,72,0.00,,---,0.00,VWS V14.01,2013-01-11 18:09:00,
2013-01-11 13:14:00,43.8,35.4,30.32,ESE,102,3.0,10.0,72,0.00,,---,0.00,VWS V14.01,2013-01-11 18:14:00,
2013-01-11 13:15:00,43.9,35.5,30.32,ESE,122,4.0,10.0,72,0.00,,---,0.00,VWS V14.01,2013-01-11 18:15:00,
2013-01-11 13:19:00,44.1,35.7,30.31,East,82,2.0,6.0,72,0.00,,---,0.00,VWS V14.01,2013-01-11 18:19:00,
2013-01-11 13:24:00,44.2,35.8,30.31,ESE,120,3.0,7.0,72,0.00,,---,0.00,VWS V14.01,2013-01-11 18:24:00,
2013-01-11 13:29:00,44.3,35.9,30.31,ESE,121,4.0,9.0,72,0.00,,---,0.00,VWS V14.01,2013-01-11 18:29:00,
2013-01-11 13:30:00,44.4,36.0,30.31,SE,135,3.0,9.0,72,0.00,,---,0.00,VWS V14.01,2013-01-11 18:30:00,
2013-01-11 13:34:00,44.5,36.0,30.31,ENE,64,4.0,10.0,72,0.00,,---,0.00,VWS V14.01,2013-01-11 18:34:00,
2013-01-11 13:39:00,44.4,36.0,30.31,SE,135,6.0,10.0,72,0.00,,---,0.00,VWS V14.01,2013-01-11 18:39:00,
2013-01-11 13:44:00,44.7,36.2,30.30,ESE,105,9.0,11.0,72,0.00,,---,0.00,VWS V14.01,2013-01-11 18:44:00,
2013-01-11 13:45:00,44.7,36.2,30.30,ESE,116,3.0,11.0,72,0.00,,---,0.00,VWS V14.01,2013-01-11 18:45:00,
2013-01-11 13:49:00,45.0,36.5,30.31,East,81,5.0,9.0,72,0.00,,---,0.00,VWS V14.01,2013-01-11 18:49:00,
2013-01-11 13:54:00,45.0,36.5,30.30,ESE,117,7.0,11.0,72,0.00,,---,0.00,VWS V14.01,2013-01-11 18:54:00,
2013-01-11 13:59:00,45.2,36.7,30.29,SE,142,5.0,11.0,72,0.00,,---,0.00,VWS V14.01,2013-01-11 18:59:00,
2013-01-11 14:00:00,45.1,36.3,30.29,SE,126,3.0,11.0,71,0.00,,---,0.00,VWS V14.01,2013-01-11 19:00:00,
2013-01-11 14:04:00,45.1,36.3,30.29,SE,146,4.0,10.0,71,0.00,,---,0.00,VWS V14.01,2013-01-11 19:04:00,
2013-01-11 14:09:00,45.3,36.8,30.29,SE,126,4.0,10.0,72,0.00,,---,0.00,VWS V14.01,2013-01-11 19:09:00,
2013-01-11 14:14:00,45.4,37.3,30.29,ESE,108,5.0,10.0,73,0.00,,---,0.00,VWS V14.01,2013-01-11 19:14:00,
2013-01-11 14:15:00,45.4,37.6,30.29,ESE,107,5.0,10.0,74,0.00,,---,0.00,VWS V14.01,2013-01-11 19:15:00,
2013-01-11 14:19:00,45.0,37.2,30.29,SE,128,3.0,11.0,74,0.00,,---,0.00,VWS V14.01,2013-01-11 19:19:00,
2013-01-11 14:24:00,45.0,37.6,30.29,SE,126,2.0,11.0,75,0.00,,---,0.00,VWS V14.01,2013-01-11 19:24:00,
2013-01-11 14:29:00,44.8,37.4,30.28,SE,124,10.0,12.0,75,0.00,,---,0.00,VWS V14.01,2013-01-11 19:29:00,
2013-01-11 14:30:00,44.7,37.3,30.28,SE,142,6.0,12.0,75,0.00,,---,0.00,VWS V14.01,2013-01-11 19:30:00,
2013-01-11 14:34:00,44.6,37.5,30.28,SE,130,4.0,10.0,76,0.00,,---,0.00,VWS V14.01,2013-01-11 19:34:00,
2013-01-11 14:39:00,44.6,38.2,30.28,ESE,105,3.0,10.0,78,0.01,,---,0.01,VWS V14.01,2013-01-11 19:39:00,
2013-01-11 14:44:00,44.4,38.3,30.27,East,92,3.0,10.0,79,0.01,,---,0.01,VWS V14.01,2013-01-11 19:44:00,
2013-01-11 14:45:00,44.4,38.3,30.28,East,90,6.0,10.0,79,0.01,,---,0.01,VWS V14.01,2013-01-11 19:45:00,
2013-01-11 14:49:00,44.3,38.2,30.27,ESE,110,1.0,8.0,79,0.01,,---,0.01,VWS V14.01,2013-01-11 19:49:00,
2013-01-11 14:55:00,44.2,38.1,30.27,East,100,6.0,9.0,79,0.01,,---,0.01,VWS V14.01,2013-01-11 19:55:00,
2013-01-11 15:00:00,44.2,38.4,30.26,ESE,121,9.0,9.0,80,0.01,,---,0.01,VWS V14.01,2013-01-11 20:00:00,
2013-01-11 15:05:00,44.3,38.5,30.26,East,91,3.0,8.0,80,0.01,,---,0.01,VWS V14.01,2013-01-11 20:05:00,
2013-01-11 15:10:00,44.2,38.4,30.26,ENE,66,5.0,10.0,80,0.01,,---,0.01,VWS V14.01,2013-01-11 20:10:00,
2013-01-11 15:15:00,43.9,38.5,30.26,East,85,9.0,12.0,81,0.01,,---,0.01,VWS V14.01,2013-01-11 20:15:00,
2013-01-11 15:20:00,43.7,38.3,30.25,ESE,104,2.0,13.0,81,0.01,,---,0.01,VWS V14.01,2013-01-11 20:20:00,
2013-01-11 15:25:00,43.7,38.6,30.25,ENE,62,3.0,13.0,82,0.01,,---,0.01,VWS V14.01,2013-01-11 20:25:00,
2013-01-11 15:30:00,43.8,38.7,30.25,East,100,0.0,13.0,82,0.01,,---,0.01,VWS V14.01,2013-01-11 20:30:00,
2013-01-11 15:35:00,43.7,38.9,30.25,East,87,5.0,6.0,83,0.01,,---,0.01,VWS V14.01,2013-01-11 20:35:00,
2013-01-11 15:40:00,43.5,38.7,30.26,ESE,111,4.0,7.0,83,0.01,,---,0.01,VWS V14.01,2013-01-11 20:40:00,
2013-01-11 15:45:00,43.4,38.6,30.26,ESE,115,2.0,7.0,83,0.01,,---,0.01,VWS V14.01,2013-01-11 20:45:00,
2013-01-11 15:50:00,43.4,38.6,30.26,East,82,0.0,5.0,83,0.00,,---,0.01,VWS V14.01,2013-01-11 20:50:00,
2013-01-11 15:55:00,43.3,38.5,30.25,East,84,2.0,6.0,83,0.00,,---,0.01,VWS V14.01,2013-01-11 20:55:00,
2013-01-11 16:00:00,43.3,38.5,30.25,ESE,119,3.0,7.0,83,0.00,,---,0.01,VWS V14.01,2013-01-11 21:00:00,
2013-01-11 16:05:00,43.2,38.4,30.24,ESE,108,2.0,7.0,83,0.00,,---,0.01,VWS V14.01,2013-01-11 21:05:00,
2013-01-11 16:10:00,43.3,38.8,30.24,East,98,5.0,7.0,84,0.00,,---,0.01,VWS V14.01,2013-01-11 21:10:00,
2013-01-11 16:15:00,43.2,38.7,30.23,ESE,120,4.0,9.0,84,0.00,,---,0.01,VWS V14.01,2013-01-11 21:15:00,
2013-01-11 16:20:00,43.2,38.7,30.24,East,80,2.0,6.0,84,0.00,,---,0.01,VWS V14.01,2013-01-11 21:20:00,
2013-01-11 16:25:00,43.3,38.8,30.24,East,97,3.0,7.0,84,0.00,,---,0.01,VWS V14.01,2013-01-11 21:25:00,
2013-01-11 16:30:00,43.3,38.8,30.24,ESE,117,3.0,7.0,84,0.00,,---,0.01,VWS V14.01,2013-01-11 21:30:00,
2013-01-11 16:35:00,43.5,39.3,30.23,ESE,111,3.0,8.0,85,0.00,,---,0.01,VWS V14.01,2013-01-11 21:35:00,
2013-01-11 16:41:00,43.5,39.3,30.24,SE,146,6.0,8.0,85,0.00,,---,0.01,VWS V14.01,2013-01-11 21:41:00,
2013-01-11 16:45:00,43.5,39.3,30.23,SE,134,0.0,8.0,85,0.00,,---,0.01,VWS V14.01,2013-01-11 21:45:00,
2013-01-11 16:46:00,43.5,39.3,30.23,SE,134,0.0,8.0,85,0.00,,---,0.01,VWS V14.01,2013-01-11 21:46:00,
2013-01-11 16:51:00,43.6,39.4,30.24,SE,134,2.0,2.0,85,0.00,,---,0.01,VWS V14.01,2013-01-11 21:51:00,
2013-01-11 16:56:00,43.5,39.3,30.23,ESE,121,2.0,4.0,85,0.00,,---,0.01,VWS V14.01,2013-01-11 21:56:00,
2013-01-11 17:00:00,43.5,39.3,30.23,ESE,110,0.0,4.0,85,0.01,,---,0.02,VWS V14.01,2013-01-11 22:00:00,
2013-01-11 17:01:00,43.5,39.3,30.23,ESE,110,0.0,4.0,85,0.01,,---,0.02,VWS V14.01,2013-01-11 22:01:00,
2013-01-11 17:06:00,43.5,39.3,30.22,ESE,112,0.0,4.0,85,0.01,,---,0.02,VWS V14.01,2013-01-11 22:06:00,
2013-01-11 17:11:00,43.4,39.5,30.21,ESE,120,4.0,5.0,86,0.02,,---,0.03,VWS V14.01,2013-01-11 22:11:00,
2013-01-11 17:15:00,43.4,39.5,30.22,SE,128,3.0,6.0,86,0.02,,---,0.03,VWS V14.01,2013-01-11 22:15:00,
2013-01-11 17:16:00,43.4,39.5,30.22,SE,128,2.0,4.0,86,0.03,,---,0.04,VWS V14.01,2013-01-11 22:16:00,
2013-01-11 17:21:00,43.4,39.5,30.22,SE,128,0.0,4.0,86,0.03,,---,0.04,VWS V14.01,2013-01-11 22:21:00,
2013-01-11 17:26:00,43.4,39.8,30.21,ESE,123,2.0,5.0,87,0.04,,---,0.05,VWS V14.01,2013-01-11 22:26:00,
2013-01-11 17:30:00,43.5,39.9,30.21,ESE,123,4.0,5.0,87,0.04,,---,0.05,VWS V14.01,2013-01-11 22:30:00,
2013-01-11 17:31:00,43.5,39.9,30.21,ESE,123,4.0,5.0,87,0.04,,---,0.05,VWS V14.01,2013-01-11 22:31:00,
2013-01-11 17:36:00,43.5,39.9,30.20,ESE,112,2.0,7.0,87,0.05,,---,0.06,VWS V14.01,2013-01-11 22:36:00,
2013-01-11 17:41:00,43.4,40.1,30.20,ESE,112,0.0,7.0,88,0.05,,---,0.06,VWS V14.01,2013-01-11 22:41:00,
2013-01-11 17:45:00,43.4,40.1,30.20,ESE,109,1.0,7.0,88,0.05,,---,0.06,VWS V14.01,2013-01-11 22:45:00,
2013-01-11 17:46:00,43.4,40.1,30.19,ESE,109,2.0,3.0,88,0.05,,---,0.06,VWS V14.01,2013-01-11 22:46:00,
2013-01-11 17:51:00,43.5,40.2,30.19,ESE,119,3.0,8.0,88,0.06,,---,0.07,VWS V14.01,2013-01-11 22:51:00,
2013-01-11 17:56:00,43.6,40.3,30.19,SE,136,4.0,8.0,88,0.07,,---,0.08,VWS V14.01,2013-01-11 22:56:00,
2013-01-11 18:00:00,43.7,40.4,30.18,ESE,123,5.0,8.0,88,0.08,,---,0.09,VWS V14.01,2013-01-11 23:00:00,
2013-01-11 18:01:00,43.7,40.7,30.18,ESE,123,3.0,5.0,89,0.07,,---,0.09,VWS V14.01,2013-01-11 23:01:00,
2013-01-11 18:07:00,43.7,40.7,30.18,ESE,121,2.0,7.0,89,0.08,,---,0.10,VWS V14.01,2013-01-11 23:07:00,
2013-01-11 18:12:00,43.7,40.7,30.17,SE,132,6.0,9.0,89,0.09,,---,0.11,VWS V14.01,2013-01-11 23:12:00,
2013-01-11 18:15:00,43.7,40.7,30.17,East,100,1.0,9.0,89,0.10,,---,0.12,VWS V14.01,2013-01-11 23:15:00,
2013-01-11 18:17:00,43.7,40.7,30.17,ESE,103,3.0,6.0,89,0.09,,---,0.12,VWS V14.01,2013-01-11 23:17:00,
2013-01-11 18:22:00,43.8,40.8,30.16,ENE,75,3.0,6.0,89,0.10,,---,0.13,VWS V14.01,2013-01-11 23:22:00,
2013-01-11 18:27:00,43.9,40.9,30.16,ESE,118,5.0,7.0,89,0.11,,---,0.14,VWS V14.01,2013-01-11 23:27:00,
2013-01-11 18:30:00,44.0,41.0,30.16,ESE,113,4.0,8.0,89,0.12,,---,0.15,VWS V14.01,2013-01-11 23:30:00,
2013-01-11 18:32:00,44.0,41.0,30.16,ESE,114,3.0,8.0,89,0.10,,---,0.15,VWS V14.01,2013-01-11 23:32:00,
2013-01-11 18:37:00,43.9,40.9,30.16,ESE,107,0.0,8.0,89,0.11,,---,0.16,VWS V14.01,2013-01-11 23:37:00,
2013-01-11 18:42:00,43.9,40.9,30.15,ENE,69,5.0,8.0,89,0.13,,---,0.18,VWS V14.01,2013-01-11 23:42:00,
2013-01-11 18:45:00,43.9,41.2,30.15,East,82,0.0,8.0,90,0.14,,---,0.19,VWS V14.01,2013-01-11 23:45:00,
2013-01-11 18:47:00,43.9,41.2,30.15,ENE,70,3.0,4.0,90,0.13,,---,0.19,VWS V14.01,2013-01-11 23:47:00,
2013-01-11 18:52:00,44.0,41.3,30.15,ESE,117,4.0,8.0,90,0.14,,---,0.20,VWS V14.01,2013-01-11 23:52:00,
2013-01-11 18:57:00,44.2,41.5,30.15,ESE,111,2.0,8.0,90,0.15,,---,0.21,VWS V14.01,2013-01-11 23:57:00,
2013-01-11 19:00:00,44.2,41.5,30.15,ESE,113,0.0,8.0,90,0.15,,---,0.21,VWS V14.01,2013-01-12 00:00:00,
2013-01-11 19:02:00,44.2,41.5,30.16,ESE,113,0.0,1.0,90,0.12,,---,0.21,VWS V14.01,2013-01-12 00:02:00,
2013-01-11 19:07:00,44.1,41.4,30.17,ENE,72,2.0,4.0,90,0.13,,---,0.22,VWS V14.01,2013-01-12 00:07:00,
2013-01-11 19:12:00,44.0,41.3,30.17,ENE,72,2.0,4.0,90,0.14,,---,0.23,VWS V14.01,2013-01-12 00:12:00,
2013-01-11 19:15:00,44.0,41.3,30.18,ENE,72,0.0,4.0,90,0.15,,---,0.24,VWS V14.01,2013-01-12 00:15:00,
2013-01-11 19:17:00,44.0,41.3,30.17,ENE,72,0.0,0.0,90,0.12,,---,0.24,VWS V14.01,2013-01-12 00:17:00,
2013-01-11 19:22:00,44.0,41.3,30.17,ENE,72,0.0,0.0,90,0.14,,---,0.26,VWS V14.01,2013-01-12 00:22:00,
2013-01-11 19:27:00,44.0,41.5,30.17,ENE,72,0.0,2.0,91,0.15,,---,0.27,VWS V14.01,2013-01-12 00:27:00,
2013-01-11 19:30:00,44.0,41.5,30.17,ENE,72,0.0,3.0,91,0.16,,---,0.28,VWS V14.01,2013-01-12 00:30:00,
2013-01-11 19:32:00,44.0,41.5,30.18,ENE,72,0.0,0.0,91,0.14,,---,0.29,VWS V14.01,2013-01-12 00:32:00,
2013-01-11 19:38:00,43.9,41.5,30.19,NNW,331,4.0,6.0,91,0.16,,---,0.31,VWS V14.01,2013-01-12 00:38:00,
2013-01-11 19:43:00,44.0,41.5,30.19,NNW,332,0.0,6.0,91,0.19,,---,0.34,VWS V14.01,2013-01-12 00:43:00,
2013-01-11 19:45:00,44.0,41.5,30.18,NNW,332,0.0,6.0,91,0.20,,---,0.35,VWS V14.01,2013-01-12 00:45:00,
2013-01-11 19:48:00,44.0,41.5,30.18,NNW,332,1.0,1.0,91,0.17,,---,0.36,VWS V14.01,2013-01-12 00:48:00,
2013-01-11 19:53:00,44.1,41.7,30.17,North,360,1.0,3.0,91,0.18,,---,0.37,VWS V14.01,2013-01-12 00:53:00,
2013-01-11 19:58:00,44.0,41.5,30.17,North,360,0.0,3.0,91,0.18,,---,0.37,VWS V14.01,2013-01-12 00:58:00,
2013-01-11 20:00:00,44.0,41.5,30.17,North,360,0.0,3.0,91,0.18,,---,0.37,VWS V14.01,2013-01-12 01:00:00,
2013-01-11 20:03:00,44.0,41.5,30.17,North,360,2.0,3.0,91,0.16,,---,0.37,VWS V14.01,2013-01-12 01:03:00,
2013-01-11 20:08:00,44.0,41.5,30.17,NNE,13,3.0,3.0,91,0.17,,---,0.38,VWS V14.01,2013-01-12 01:08:00,
2013-01-11 20:13:00,44.0,41.5,30.16,NNE,13,0.0,3.0,91,0.18,,---,0.39,VWS V14.01,2013-01-12 01:13:00,
2013-01-11 20:15:00,44.1,41.7,30.16,NNE,22,2.0,4.0,91,0.18,,---,0.39,VWS V14.01,2013-01-12 01:15:00,
2013-01-11 20:18:00,44.1,41.7,30.16,NNE,22,0.0,3.0,91,0.15,,---,0.39,VWS V14.01,2013-01-12 01:18:00,
2013-01-11 20:23:00,44.1,41.9,30.16,NNE,22,2.0,3.0,92,0.16,,---,0.40,VWS V14.01,2013-01-12 01:23:00,
2013-01-11 20:28:00,44.1,41.9,30.16,NE,47,3.0,4.0,92,0.17,,---,0.41,VWS V14.01,2013-01-12 01:28:00,
2013-01-11 20:30:00,44.1,41.9,30.15,East,82,5.0,7.0,92,0.17,,---,0.41,VWS V14.01,2013-01-12 01:30:00,
2013-01-11 20:33:00,44.1,41.9,30.15,ENE,63,3.0,5.0,92,0.13,,---,0.41,VWS V14.01,2013-01-12 01:33:00,
2013-01-11 20:38:00,44.1,41.9,30.15,ENE,69,2.0,7.0,92,0.13,,---,0.41,VWS V14.01,2013-01-12 01:38:00,
2013-01-11 20:44:00,44.2,42.0,30.15,ENE,66,4.0,7.0,92,0.13,,---,0.41,VWS V14.01,2013-01-12 01:44:00,
2013-01-11 20:45:00,44.2,42.0,30.15,ENE,68,4.0,8.0,92,0.14,,---,0.42,VWS V14.01,2013-01-12 01:45:00,
2013-01-11 20:49:00,44.2,42.0,30.15,ENE,65,1.0,5.0,92,0.07,,---,0.42,VWS V14.01,2013-01-12 01:49:00,
2013-01-11 20:54:00,44.3,42.1,30.14,ENE,77,4.0,7.0,92,0.07,,---,0.42,VWS V14.01,2013-01-12 01:54:00,
2013-01-11 20:59:00,44.4,42.2,30.14,East,81,6.0,8.0,92,0.08,,---,0.43,VWS V14.01,2013-01-12 01:59:00,
2013-01-11 21:00:00,44.4,42.2,30.14,East,80,3.0,8.0,92,0.08,,---,0.43,VWS V14.01,2013-01-12 02:00:00,
2013-01-11 21:04:00,44.4,42.2,30.13,ENE,75,5.0,8.0,92,0.06,,---,0.43,VWS V14.01,2013-01-12 02:04:00,
2013-01-11 21:09:00,44.4,42.2,30.13,ENE,78,9.0,9.0,92,0.07,,---,0.44,VWS V14.01,2013-01-12 02:09:00,
2013-01-11 21:14:00,44.5,42.3,30.13,ENE,78,4.0,9.0,92,0.08,,---,0.45,VWS V14.01,2013-01-12 02:14:00,
2013-01-11 21:15:00,44.5,42.3,30.13,East,84,7.0,9.0,92,0.09,,---,0.46,VWS V14.01,2013-01-12 02:15:00,
2013-01-11 21:19:00,44.5,42.3,30.13,ENE,72,8.0,10.0,92,0.07,,---,0.46,VWS V14.01,2013-01-12 02:19:00,
2013-01-11 21:25:00,44.6,42.4,30.13,East,92,3.0,10.0,92,0.08,,---,0.47,VWS V14.01,2013-01-12 02:25:00,
2013-01-11 21:30:00,44.7,42.8,30.12,ENE,73,4.0,10.0,93,0.09,,---,0.48,VWS V14.01,2013-01-12 02:30:00,
2013-01-11 21:35:00,44.7,42.8,30.13,East,84,3.0,8.0,93,0.08,,---,0.49,VWS V14.01,2013-01-12 02:35:00,
2013-01-11 21:40:00,44.8,42.9,30.12,ENE,78,4.0,8.0,93,0.09,,---,0.50,VWS V14.01,2013-01-12 02:40:00,
2013-01-11 21:45:00,44.9,43.0,30.12,East,90,0.0,8.0,93,0.10,,---,0.51,VWS V14.01,2013-01-12 02:45:00,
2013-01-11 21:50:00,45.0,43.1,30.12,ESE,106,3.0,8.0,93,0.10,,---,0.52,VWS V14.01,2013-01-12 02:50:00,
2013-01-11 21:55:00,45.0,43.1,30.11,ESE,107,2.0,8.0,93,0.10,,---,0.52,VWS V14.01,2013-01-12 02:55:00,
2013-01-11 22:00:00,45.0,43.1,30.11,ESE,109,7.0,9.0,93,0.11,,---,0.53,VWS V14.01,2013-01-12 03:00:00,
2013-01-11 22:05:00,44.9,43.0,30.11,ESE,112,0.0,9.0,93,0.10,,---,0.53,VWS V14.01,2013-01-12 03:05:00,
2013-01-11 22:10:00,44.9,43.0,30.11,ENE,76,4.0,9.0,93,0.10,,---,0.53,VWS V14.01,2013-01-12 03:10:00,
2013-01-11 22:15:00,44.9,43.0,30.11,East,84,5.0,9.0,93,0.10,,---,0.53,VWS V14.01,2013-01-12 03:15:00,
2013-01-11 22:20:00,45.0,43.1,30.11,ENE,77,3.0,8.0,93,0.07,,---,0.53,VWS V14.01,2013-01-12 03:20:00,
2013-01-11 22:25:00,45.0,43.1,30.10,East,94,5.0,8.0,93,0.07,,---,0.53,VWS V14.01,2013-01-12 03:25:00,
2013-01-11 22:30:00,45.0,43.1,30.10,East,83,5.0,9.0,93,0.07,,---,0.53,VWS V14.01,2013-01-12 03:30:00,
2013-01-11 22:31:00,45.0,43.1,30.10,East,84,3.0,9.0,93,0.07,,---,0.53,VWS V14.01,2013-01-12 03:31:00,
2013-01-11 22:36:00,45.0,43.1,30.10,East,94,3.0,13.0,93,0.05,,---,0.53,VWS V14.01,2013-01-12 03:36:00,
2013-01-11 22:41:00,45.0,43.1,30.10,East,92,2.0,13.0,93,0.05,,---,0.53,VWS V14.01,2013-01-12 03:41:00,
2013-01-11 22:45:00,45.0,43.1,30.10,ENE,65,0.0,13.0,93,0.05,,---,0.53,VWS V14.01,2013-01-12 03:45:00,
2013-01-11 22:46:00,45.0,43.1,30.10,ENE,65,0.0,0.0,93,0.02,,---,0.53,VWS V14.01,2013-01-12 03:46:00,
2013-01-11 22:51:00,45.0,43.1,30.09,ENE,65,2.0,4.0,93,0.02,,---,0.53,VWS V14.01,2013-01-12 03:51:00,
2013-01-11 22:56:00,44.9,43.0,30.09,ENE,77,4.0,6.0,93,0.02,,---,0.53,VWS V14.01,2013-01-12 03:56:00,
2013-01-11 23:00:00,44.9,43.0,30.08,ENE,69,3.0,6.0,93,0.02,,---,0.53,VWS V14.01,2013-01-12 04:00:00,
2013-01-11 23:01:00,44.9,43.0,30.08,ENE,69,3.0,3.0,93,0.00,,---,0.53,VWS V14.01,2013-01-12 04:01:00,
2013-01-11 23:06:00,44.9,43.0,30.08,ENE,68,7.0,8.0,93,0.00,,---,0.53,VWS V14.01,2013-01-12 04:06:00,
2013-01-11 23:11:00,44.8,42.9,30.08,East,86,3.0,8.0,93,0.00,,---,0.53,VWS V14.01,2013-01-12 04:11:00,
2013-01-11 23:15:00,44.9,43.0,30.09,ENE,65,2.0,8.0,93,0.00,,---,0.53,VWS V14.01,2013-01-12 04:15:00,
2013-01-11 23:16:00,44.8,42.9,30.09,ENE,65,4.0,4.0,93,0.00,,---,0.53,VWS V14.01,2013-01-12 04:16:00,
2013-01-11 23:21:00,44.8,42.9,30.09,ENE,65,4.0,4.0,93,0.00,,---,0.53,VWS V14.01,2013-01-12 04:21:00,
2013-01-11 23:26:00,44.8,42.9,30.09,NE,35,3.0,5.0,93,0.00,,---,0.53,VWS V14.01,2013-01-12 04:26:00,
2013-01-11 23:30:00,44.8,42.9,30.09,NE,35,0.0,5.0,93,0.00,,---,0.53,VWS V14.01,2013-01-12 04:30:00,
2013-01-11 23:31:00,44.8,42.9,30.09,NE,35,0.0,0.0,93,0.00,,---,0.53,VWS V14.01,2013-01-12 04:31:00,
2013-01-11 23:36:00,44.9,43.0,30.08,NE,35,0.0,4.0,93,0.00,,---,0.53,VWS V14.01,2013-01-12 04:36:00,
2013-01-11 23:42:00,44.8,42.9,30.08,NE,35,0.0,4.0,93,0.00,,---,0.53,VWS V14.01,2013-01-12 04:42:00,
2013-01-11 23:45:00,44.8,42.9,30.08,NE,35,0.0,4.0,93,0.00,,---,0.53,VWS V14.01,2013-01-12 04:45:00,
2013-01-11 23:47:00,44.8,42.9,30.08,NE,35,0.0,3.0,93,0.00,,---,0.53,VWS V14.01,2013-01-12 04:47:00,
2013-01-11 23:52:00,44.8,42.9,30.08,NE,35,0.0,3.0,93,0.00,,---,0.53,VWS V14.01,2013-01-12 04:52:00,
2013-01-11 23:57:00,44.8,42.9,30.07,NE,35,0.0,3.0,93,0.00,,---,0.53,VWS V14.01,2013-01-12 04:57:00,